NOZ39A ENGM-ENAN

Flight info

Callsign NOZ39A
Flight time N/A
Altitude 37000
Route RIBBE DCT GIGNI DCT SOMUB DCT IBVIS
Aircraft B738/M-SDE2E3FGHIRWXY/LB1

Departure

Time N/A
Airport Oslo-Gardermoen International Airport (ENGM)

Arrival

Time 2026-04-15 10:55
Airport Andøya Airport, Andenes (ENAN)
Time Latitude Longitude Altitude Speed Heading
2026-04-15 09:56 63.75957 12.02431 37042 ft 445 kts 12°
2026-04-15 09:57 63.78924 12.04040 37043 ft 446 kts 12°
2026-04-15 09:57 63.84978 12.07336 37226 ft 448 kts 11°
2026-04-15 09:57 63.88009 12.08992 37370 ft 449 kts 12°
2026-04-15 09:58 63.91055 12.10660 37359 ft 450 kts 12°
2026-04-15 09:58 63.97137 12.14003 37352 ft 447 kts 12°
2026-04-15 09:59 64.03158 12.17328 37357 ft 443 kts 12°
2026-04-15 09:59 64.06151 12.18985 37240 ft 442 kts 12°
2026-04-15 09:59 64.09140 12.20644 37243 ft 442 kts 11°
2026-04-15 10:00 64.15104 12.23964 37255 ft 440 kts 11°
2026-04-15 10:00 64.21053 12.27290 37294 ft 440 kts 12°
2026-04-15 10:01 64.27011 12.30636 37323 ft 441 kts 12°
2026-04-15 10:01 64.32986 12.34006 37349 ft 443 kts 12°
2026-04-15 10:02 64.38978 12.37403 37358 ft 445 kts 12°
2026-04-15 10:02 64.44997 12.40829 37367 ft 446 kts 12°
2026-04-15 10:03 64.51044 12.44287 37357 ft 448 kts 12°
2026-04-15 10:03 64.57108 12.47771 37358 ft 450 kts 12°
2026-04-15 10:04 64.63181 12.51277 37357 ft 450 kts 12°
2026-04-15 10:04 64.69261 12.54803 37361 ft 450 kts 12°
2026-04-15 10:05 64.75342 12.58346 37353 ft 450 kts 12°
2026-04-15 10:05 64.81416 12.61900 37360 ft 450 kts 12°
2026-04-15 10:06 64.87486 12.65469 37364 ft 449 kts 12°
2026-04-15 10:06 64.93506 12.69026 37364 ft 449 kts 12°
2026-04-15 10:07 64.99597 12.72641 37360 ft 448 kts 12°
2026-04-15 10:07 65.05637 12.76243 37360 ft 447 kts 12°
2026-04-15 10:08 65.11665 12.79854 37358 ft 447 kts 12°
2026-04-15 10:08 65.17697 12.83484 37366 ft 447 kts 12°
2026-04-15 10:09 65.23726 12.87129 37362 ft 447 kts 12°
2026-04-15 10:09 65.29756 12.90793 37369 ft 448 kts 12°
2026-04-15 10:10 65.35758 12.94456 37358 ft 448 kts 12°
2026-04-15 10:10 65.41802 12.98163 37355 ft 449 kts 12°
2026-04-15 10:11 65.47851 13.01890 37367 ft 449 kts 12°
2026-04-15 10:11 65.53903 13.05638 37349 ft 450 kts 12°
2026-04-15 10:12 65.59965 13.09410 37353 ft 450 kts 12°
2026-04-15 10:12 65.66024 13.13198 37342 ft 450 kts 12°
2026-04-15 10:13 65.72092 13.17010 37354 ft 450 kts 13°
2026-04-15 10:13 65.78160 13.20840 37348 ft 451 kts 13°
2026-04-15 10:14 65.84234 13.24693 37348 ft 451 kts 13°
2026-04-15 10:14 65.90307 13.28565 37351 ft 451 kts 13°
2026-04-15 10:15 65.96382 13.32456 37340 ft 451 kts 13°
2026-04-15 10:15 66.02455 13.36366 37355 ft 451 kts 12°
2026-04-15 10:16 66.08535 13.40299 37342 ft 452 kts 12°
2026-04-15 10:16 66.14609 13.44248 37344 ft 451 kts 12°
2026-04-15 10:17 66.20683 13.48217 37354 ft 451 kts 13°
2026-04-15 10:17 66.26751 13.52201 37346 ft 451 kts 13°
2026-04-15 10:18 66.32819 13.56206 37363 ft 451 kts 12°
2026-04-15 10:18 66.38877 13.60223 37345 ft 451 kts 13°
2026-04-15 10:19 66.44938 13.64264 37358 ft 451 kts 13°
2026-04-15 10:19 66.50993 13.68320 37351 ft 450 kts 13°
2026-04-15 10:20 66.57048 13.72397 37360 ft 450 kts 13°
2026-04-15 10:20 66.63095 13.76489 37371 ft 450 kts 13°
2026-04-15 10:21 66.69153 13.80608 37352 ft 451 kts 13°
2026-04-15 10:21 66.75213 13.84751 37348 ft 451 kts 13°
2026-04-15 10:22 66.81233 13.88888 37348 ft 451 kts 13°
2026-04-15 10:22 66.87294 13.93073 37353 ft 451 kts 13°
2026-04-15 10:23 66.93356 13.97282 37358 ft 452 kts 13°
2026-04-15 10:23 66.99455 14.01537 37345 ft 452 kts 13°
2026-04-15 10:24 67.05522 14.05792 37349 ft 452 kts 13°
2026-04-15 10:24 67.11603 14.10079 36943 ft 454 kts 13°
2026-04-15 10:24 67.14634 14.12226 36597 ft 448 kts 13°
2026-04-15 10:25 67.17623 14.14350 36204 ft 444 kts 13°
2026-04-15 10:25 67.20584 14.16459 35809 ft 440 kts 13°
2026-04-15 10:25 67.23484 14.18528 35421 ft 436 kts 13°
2026-04-15 10:25 67.26399 14.20613 35027 ft 433 kts 13°
2026-04-15 10:26 67.29296 14.22689 34640 ft 430 kts 13°
2026-04-15 10:26 67.32174 14.24757 34199 ft 428 kts 13°
2026-04-15 10:26 67.35037 14.26819 33746 ft 425 kts 13°
2026-04-15 10:26 67.37876 14.28870 33326 ft 422 kts 13°
2026-04-15 10:27 67.40692 14.30909 32933 ft 418 kts 13°
2026-04-15 10:27 67.43480 14.32932 32548 ft 415 kts 13°
2026-04-15 10:27 67.46252 14.34950 32160 ft 412 kts 12°
2026-04-15 10:27 67.49005 14.36957 31785 ft 409 kts 12°
2026-04-15 10:28 67.51736 14.38954 31402 ft 406 kts 12°
2026-04-15 10:28 67.54450 14.40942 31036 ft 404 kts 12°
2026-04-15 10:28 67.57147 14.42923 30680 ft 401 kts 12°
2026-04-15 10:28 67.59830 14.44898 30293 ft 399 kts 13°
2026-04-15 10:29 67.62497 14.46866 29867 ft 397 kts 13°
2026-04-15 10:29 67.65147 14.48826 29460 ft 394 kts 13°
2026-04-15 10:29 67.67768 14.50770 29089 ft 390 kts 13°
2026-04-15 10:29 67.70369 14.52703 28692 ft 387 kts 13°
2026-04-15 10:30 67.72946 14.54622 28313 ft 384 kts 13°
2026-04-15 10:30 67.75504 14.56532 27938 ft 381 kts 13°
2026-04-15 10:30 67.78012 14.58408 27572 ft 378 kts 13°
2026-04-15 10:30 67.80535 14.60300 27206 ft 375 kts 13°
2026-04-15 10:31 67.83039 14.62182 26840 ft 373 kts 13°
2026-04-15 10:31 67.85523 14.64052 26481 ft 370 kts 13°
2026-04-15 10:31 67.87997 14.65918 26135 ft 368 kts 14°
2026-04-15 10:31 67.90457 14.67779 25769 ft 367 kts 14°
2026-04-15 10:32 67.92109 14.69029 25512 ft 366 kts 14°
2026-04-15 10:32 67.95416 14.71312 24739 ft 373 kts 12°
2026-04-15 10:32 67.97124 14.72413 24430 ft 374 kts 12°
2026-04-15 10:32 67.99647 14.74017 24068 ft 372 kts 12°
2026-04-15 10:33 68.02164 14.75618 23637 ft 371 kts 12°
2026-04-15 10:33 68.04666 14.77224 23238 ft 369 kts 12°
2026-04-15 10:33 68.07150 14.78832 22859 ft 366 kts 12°
2026-04-15 10:33 68.09614 14.80439 22493 ft 363 kts 13°
2026-04-15 10:34 68.12056 14.82041 22134 ft 361 kts 13°
2026-04-15 10:34 68.14485 14.83640 21789 ft 358 kts 13°
2026-04-15 10:34 68.16866 14.85214 21437 ft 356 kts 13°
2026-04-15 10:34 68.19263 14.86802 21089 ft 354 kts 13°
2026-04-15 10:35 68.21646 14.88384 20728 ft 352 kts 13°
2026-04-15 10:35 68.24020 14.89964 20381 ft 351 kts 13°
2026-04-15 10:35 68.26385 14.91542 20041 ft 349 kts 13°
2026-04-15 10:35 68.28738 14.93116 19696 ft 349 kts 13°
2026-04-15 10:36 68.31090 14.94691 19347 ft 348 kts 13°
2026-04-15 10:36 68.33439 14.96268 18991 ft 348 kts 13°
2026-04-15 10:36 68.35787 14.97848 18652 ft 347 kts 13°
2026-04-15 10:36 68.38130 14.99428 18258 ft 347 kts 13°
2026-04-15 10:37 68.40467 15.01007 17898 ft 346 kts 13°
2026-04-15 10:37 68.42804 15.02590 17531 ft 345 kts 13°
2026-04-15 10:37 68.45127 15.04166 17175 ft 343 kts 13°
2026-04-15 10:37 68.47437 15.05739 16841 ft 341 kts 13°
2026-04-15 10:38 68.49731 15.07302 16502 ft 339 kts 13°
2026-04-15 10:38 68.52017 15.08864 16172 ft 338 kts 13°
2026-04-15 10:38 68.54294 15.10421 15836 ft 336 kts 13°
2026-04-15 10:38 68.56557 15.11973 15496 ft 335 kts 13°
2026-04-15 10:39 68.58816 15.13526 15165 ft 334 kts 13°
2026-04-15 10:39 68.61066 15.15076 14832 ft 333 kts 12°
2026-04-15 10:39 68.63314 15.16626 14499 ft 333 kts 12°
2026-04-15 10:39 68.65562 15.18181 14152 ft 333 kts 12°
2026-04-15 10:40 68.67807 15.19736 13790 ft 332 kts 12°
2026-04-15 10:40 68.70042 15.21288 13437 ft 330 kts 12°
2026-04-15 10:40 68.72262 15.22833 13099 ft 329 kts 12°
2026-04-15 10:40 68.74475 15.24377 12756 ft 327 kts 12°
2026-04-15 10:41 68.76676 15.25915 12429 ft 325 kts 12°
2026-04-15 10:41 68.78861 15.27445 12111 ft 323 kts 12°
2026-04-15 10:41 68.81037 15.28971 11788 ft 321 kts 12°
2026-04-15 10:41 68.83197 15.30488 11463 ft 320 kts 12°
2026-04-15 10:42 68.85342 15.31999 11135 ft 317 kts 12°
2026-04-15 10:42 68.87471 15.33503 10845 ft 314 kts 12°
2026-04-15 10:42 68.89584 15.34997 10531 ft 312 kts 12°
2026-04-15 10:42 68.91661 15.36471 10395 ft 304 kts 12°
2026-04-15 10:43 68.93685 15.37909 10158 ft 299 kts 12°
2026-04-15 10:43 68.95699 15.39340 9839 ft 297 kts 12°
2026-04-15 10:43 68.97693 15.40760 9541 ft 294 kts 12°
2026-04-15 10:43 68.99666 15.42168 9248 ft 292 kts 12°
2026-04-15 10:44 69.01625 15.43568 8962 ft 289 kts 12°
2026-04-15 10:44 69.03564 15.44957 8681 ft 287 kts 12°
2026-04-15 10:44 69.05493 15.46341 8388 ft 285 kts 12°
2026-04-15 10:44 69.07404 15.47714 8113 ft 283 kts 13°
2026-04-15 10:45 69.09313 15.49088 7618 ft 284 kts 13°
2026-04-15 10:45 69.11205 15.50454 7311 ft 277 kts 13°
2026-04-15 10:45 69.13052 15.51790 7007 ft 271 kts 13°
2026-04-15 10:45 69.14861 15.53101 6732 ft 265 kts 13°
2026-04-15 10:46 69.16623 15.54379 6454 ft 259 kts 14°
2026-04-15 10:46 69.18347 15.55631 6187 ft 253 kts 14°
2026-04-15 10:46 69.20040 15.56863 5945 ft 252 kts 14°
2026-04-15 10:46 69.21724 15.58090 5708 ft 255 kts 14°
2026-04-15 10:47 69.23469 15.59364 5473 ft 264 kts 14°
2026-04-15 10:47 69.25260 15.60674 5201 ft 266 kts 14°
2026-04-15 10:47 69.27032 15.61973 4913 ft 260 kts 14°
2026-04-15 10:47 69.28757 15.63240 4639 ft 253 kts 14°
2026-04-15 10:48 69.30436 15.64475 4386 ft 246 kts 13°
2026-04-15 10:48 69.32079 15.65683 4147 ft 244 kts 13°
2026-04-15 10:48 69.33716 15.66890 3923 ft 240 kts 13°
2026-04-15 10:48 69.35293 15.68057 3699 ft 228 kts 13°
2026-04-15 10:49 69.36795 15.69170 3458 ft 217 kts 12°
2026-04-15 10:49 69.38215 15.70235 3361 ft 207 kts 15°
2026-04-15 10:49 69.39371 15.72385 3254 ft 197 kts 58°
2026-04-15 10:49 69.40050 15.75681 3243 ft 194 kts 60°
2026-04-15 10:50 69.40733 15.78971 3147 ft 192 kts 60°
2026-04-15 10:50 69.41409 15.82223 3048 ft 190 kts 60°
2026-04-15 10:50 69.42077 15.85446 2967 ft 189 kts 61°
2026-04-15 10:50 69.42589 15.88885 2783 ft 189 kts 91°
2026-04-15 10:51 69.42178 15.92113 2733 ft 171 kts 139°
2026-04-15 10:51 69.41359 15.94657 2481 ft 177 kts 139°
2026-04-15 10:51 69.40421 15.96779 2257 ft 169 kts 151°
2026-04-15 10:51 69.39441 15.98487 2032 ft 160 kts 155°
2026-04-15 10:52 69.38482 15.99988 1840 ft 158 kts 156°
2026-04-15 10:52 69.37528 16.01460 1641 ft 152 kts 156°
2026-04-15 10:52 69.36647 16.02822 1455 ft 135 kts 156°
2026-04-15 10:52 69.35832 16.04079 1257 ft 132 kts 155°
2026-04-15 10:53 69.35039 16.05251 1060 ft 127 kts 158°
2026-04-15 10:53 69.34239 16.06372 883 ft 130 kts 155°
2026-04-15 10:53 69.33427 16.07533 765 ft 129 kts 155°
2026-04-15 10:53 69.32646 16.08733 526 ft 128 kts 150°
2026-04-15 10:54 69.31894 16.10048 314 ft 126 kts 150°
2026-04-15 10:54 69.31134 16.11279 146 ft 125 kts 151°
2026-04-15 10:54 69.30396 16.12507 27 ft 117 kts 152°
2026-04-15 10:54 69.29814 16.13463 28 ft 68 kts 150°
2026-04-15 10:55 69.29549 16.13896 29 ft 28 kts 149°
2026-04-15 10:55 69.29428 16.14063 28 ft 7 kts 133°
2026-04-15 10:55 69.29439 16.14104 31 ft 3 kts 17°
2026-04-15 10:55 69.29463 16.14071 31 ft 9 kts 332°
2026-04-15 10:56 69.29568 16.13894 29 ft 25 kts 327°
2026-04-15 10:56 69.29724 16.13629 27 ft 26 kts 329°
2026-04-15 10:56 69.29871 16.13376 27 ft 24 kts 328°
2026-04-15 10:56 69.30006 16.13150 26 ft 21 kts 329°
2026-04-15 10:57 69.30130 16.12944 22 ft 20 kts 329°
2026-04-15 10:57 69.30368 16.12552 25 ft 19 kts 329°
2026-04-15 10:57 69.30484 16.12364 18 ft 19 kts 330°
2026-04-15 10:58 69.30578 16.12216 18 ft 11 kts 331°
2026-04-15 10:58 69.30634 16.12121 18 ft 7 kts 335°
2026-04-15 10:58 69.30687 16.12094 21 ft 11 kts
2026-04-15 10:58 69.30817 16.12156 17 ft 26 kts 10°
2026-04-15 10:59 69.30953 16.12256 17 ft 12 kts 21°
2026-04-15 10:59 69.30992 16.12338 17 ft 0 kts 70°